Simultaneous Nadir Overpasses (SNOs) Predictions

Prediction of SNOs between GOES-16 and METOP-B Satellite Orbit:

Table of predicted SNOs for the next 14.0 days since TLE Epoch: 12/13/2019
Index Date Time (GOES-16) GOES-16 Lat,Lon METOP-B Lat,Lon Distance(km) Time Diff (sec)
1 12/14/2019 14:45:02 0.02, -75.20 0.88, -78.95 427.18 80
2 12/15/2019 14:27:04 0.03, -75.20 -0.25, -73.96 142.28 80
3 12/17/2019 02:46:05 -0.04, -75.19 -0.78, -78.55 382.70 80
4 12/18/2019 02:22:47 -0.04, -75.20 0.35, -73.56 187.00 80
5 12/19/2019 14:41:39 0.04, -75.23 0.69, -78.12 329.61 80
6 12/20/2019 14:23:40 0.04, -75.23 -0.45, -73.13 240.48 80
7 12/22/2019 02:42:42 -0.04, -75.23 -0.58, -77.72 283.47 80
8 12/23/2019 02:19:23 -0.04, -75.24 0.55, -72.73 286.83 80
9 12/24/2019 14:38:16 0.04, -75.28 0.48, -77.29 228.96 80
10 12/25/2019 14:20:17 0.04, -75.29 -0.65, -72.30 341.72 80
11 12/27/2019 02:39:18 -0.04, -75.30 -0.38, -76.90 181.27 80




NCC Satellite Simultaneous Nadir Overpasses (SNOs) Prediction Service
